EW6230 Weather Reports


time (UTC)temp
F
wind
direction
speed
knots
gust
knots
rain 1hr
in
rain 24hr
in
rain mn
in
humidity
%
barometer
mb
20220124113001 35 218 0.0 0.0 0.00 0.00 0.00 1 1022.6
20220124111713 35 219 0.0 0.0 0.00 0.00 0.00 1 1022.1
20220124110142 35 219 0.0 0.0 0.00 0.00 0.00 1 1022.2
20220124104613 34 242 0.0 0.0 0.00 0.00 0.00 1 1022.7
20220124103113 34 241 0.0 0.0 0.00 0.00 0.00 1 1022.7
20220124101606 34 263 0.0 0.0 0.00 0.00 0.00 1 1022.1
20220124100044 34 264 0.0 0.0 0.00 0.00 0.00 1 1022.2
20220124094553 34 63 0.0 0.0 0.00 0.00 0.00 1 1022.1
20220124093038 34 307 0.0 0.0 0.00 0.00 0.00 1 1022.5
20220124091523 35 307 0.0 0.0 0.00 0.00 0.00 1 1023.0
20220124090022 35 307 0.0 0.0 0.00 0.00 0.00 1 1022.9
20220124084513 36 307 0.0 0.0 0.00 0.00 0.00 1 1023.3
20220124083011 36 307 0.0 0.0 0.00 0.00 0.00 1 1023.5
20220124081516 36 326 0.0 0.0 0.00 0.00 0.00 1 1023.6
20220124080353 35 117 0.0 0.9 0.00 0.00 0.00 1 1023.4
20220124074657 34 65 0.0 0.0 0.00 0.00 0.00 1 1023.1
20220124073123 34 246 0.0 0.0 0.00 0.00 0.00 1 1022.6
20220124071730 34 233 0.0 0.0 0.00 0.00 0.00 1 1022.5
20220124070113 34 10 0.0 0.0 0.00 0.00 0.00 2 1022.5
20220124064604 34 10 0.0 0.0 0.00 0.00 0.00 3 1022.6
20220124063150 34 10 0.0 0.0 0.00 0.00 0.00 3 1023.0
20220124061528 34 10 0.0 0.0 0.00 0.00 0.00 3 1023.0
20220124060025 34 10 0.0 0.0 0.00 0.00 0.00 4 1023.2
20220124054528 34 10 0.0 0.0 0.00 0.00 0.00 4 1023.3
20220124053017 35 10 0.0 0.0 0.00 0.00 0.00 5 1023.4
20220124051516 35 10 0.0 0.0 0.00 0.00 0.00 5 1023.6
20220124050007 35 91 0.0 0.0 0.00 0.00 0.00 4 1023.6
20220124044502 36 91 0.0 0.0 0.00 0.00 0.00 4 1023.9
20220124043208 37 91 0.0 0.0 0.00 0.00 0.00 2 1023.9
20220124041736 37 94 0.0 0.0 0.00 0.00 0.00 2 1023.9
20220124040148 37 94 0.0 0.0 0.00 0.00 0.00 1 1024.1
20220124034602 37 94 0.0 0.0 0.00 0.00 0.00 1 1024.2
20220124033123 37 94 0.0 0.0 0.00 0.00 0.00 2 1024.2
20220124031611 38 94 0.0 0.0 0.00 0.00 0.00 1 1024.0
20220124030141 38 94 0.0 0.0 0.00 0.00 0.00 1 1023.9
20220124024528 38 94 0.0 0.0 0.00 0.00 0.00 1 1023.9
20220124023107 38 94 0.0 0.0 0.00 0.00 0.00 1 1023.8
20220124021519 38 9 0.0 0.0 0.00 0.00 0.00 1 1023.8
20220124020032 38 9 0.0 0.0 0.00 0.00 0.00 1 1023.8
20220124014606 39 28 0.0 0.0 0.00 0.00 0.00 1 1023.8
20220124013013 39 27 0.0 0.0 0.00 0.00 0.00 1 1023.8
20220124011632 39 27 0.0 0.0 0.00 0.00 0.00 1 1024.0
20220124010146 39 140 0.0 0.0 0.00 0.00 0.00 1 1024.3
20220124004643 39 141 0.0 0.0 0.00 0.00 0.00 1 1024.6
20220124003115 39 141 0.0 0.0 0.00 0.00 0.00 1 1024.6
20220124001611 39 141 0.0 0.0 0.00 0.00 0.00 1 1024.7
20220124000156 40 160 0.0 0.0 0.00 0.00 0.00 1 1024.6
20220123234651 39 160 0.0 0.0 0.00 0.00 0.00 1 1024.4
20220123233139 40 160 0.0 0.0 0.00 0.00 0.00 1 1024.7
20220123231608 40 160 0.0 0.0 0.00 0.00 0.00 1 1024.5
20220123230049 40 160 0.0 0.0 0.00 0.00 0.00 1 1024.5
20220123224548 40 160 0.0 0.0 0.00 0.00 0.00 1 1024.5
20220123223102 40 160 0.0 0.0 0.00 0.00 0.00 1 1024.4
20220123221544 41 162 0.0 0.0 0.00 0.00 0.00 1 1024.3
20220123220028 41 68 0.0 0.0 0.00 0.00 0.00 1 1024.3
20220123214628 41 68 0.0 0.0 0.00 0.00 0.00 1 1024.1
20220123213019 41 68 0.0 0.0 0.00 0.00 0.00 1 1024.2
20220123211545 41 67 0.0 0.0 0.00 0.00 0.00 1 1024.2
20220123210012 40 68 0.0 0.0 0.00 0.00 0.00 1 1024.3
20220123204505 40 53 0.0 0.0 0.00 0.00 0.00 1 1024.7
20220123203002 39 53 0.0 0.0 0.00 0.00 0.00 1 1025.2
20220123201637 39 53 0.0 0.0 0.00 0.00 0.00 1 1025.3
20220123200144 39 53 0.0 0.0 0.00 0.00 0.00 1 1025.8
20220123194637 39 25 0.0 0.0 0.00 0.00 0.00 1 1026.1
20220123193114 39 44 0.0 0.0 0.00 0.00 0.00 1 1026.3
20220123191608 38 44 0.0 0.0 0.00 0.00 0.00 1 1026.3
20220123190049 38 11 0.0 0.0 0.00 0.00 0.00 1 1026.6
20220123184619 38 309 0.0 0.0 0.00 0.00 0.00 1 1026.9
20220123183108 37 309 0.0 0.0 0.00 0.00 0.00 1 1026.9
20220123181541 37 348 0.0 0.0 0.00 0.00 0.00 2 1026.8
20220123180026 36 336 0.0 0.9 0.00 0.00 0.00 3 1026.7
20220123174525 35 48 0.0 0.9 0.00 0.00 0.00 4 1026.6
20220123173012 35 164 0.0 0.0 0.00 0.00 0.00 5 1026.4
20220123171506 35 164 0.0 0.0 0.00 0.00 0.00 6 1026.7
20220123170003 35 164 0.0 0.0 0.00 0.00 0.00 6 1026.8
20220123164624 35 204 0.0 0.0 0.00 0.00 0.00 7 1026.9
20220123163124 35 204 0.0 0.0 0.00 0.00 0.00 7 1027.1
20220123161559 35 204 0.0 0.0 0.00 0.00 0.00 7 1027.0
20220123160117 35 143 0.0 0.0 0.00 0.00 0.00 7 1027.0
20220123154544 35 3 0.0 0.9 0.00 0.00 0.00 7 1026.9
20220123153156 35 58 0.0 0.0 0.00 0.00 0.00 7 1026.7
20220123151549 35 146 0.0 0.0 0.00 0.00 0.00 8 1026.7
20220123150101 35 156 0.0 0.0 0.00 0.00 0.00 9 1026.6
20220123144525 35 156 0.0 0.0 0.00 0.00 0.00 8 1026.7
20220123143018 35 209 0.0 0.0 0.00 0.00 0.00 8 1026.8
20220123141625 35 240 0.0 0.0 0.00 0.00 0.00 8 1026.7
20220123140008 35 13 0.0 0.0 0.00 0.00 0.00 9 1026.5
20220123134518 34 13 0.0 0.0 0.00 0.00 0.00 10 1026.3
20220123133119 35 173 0.0 0.9 0.00 0.00 0.00 10 1026.3
20220123131644 35 47 0.0 0.0 0.00 0.00 0.00 9 1026.7
20220123130113 35 9 0.0 0.0 0.00 0.00 0.00 11 1026.8
20220123124624 35 9 0.0 0.0 0.00 0.00 0.00 11 1026.8
20220123123050 35 9 0.0 0.0 0.00 0.00 0.00 11 1026.9
20220123121558 35 9 0.0 0.0 0.00 0.00 0.00 11 1027.0
20220123120103 35 27 0.0 0.0 0.00 0.00 0.00 11 1027.1
20220123114552 35 27 0.0 0.0 0.00 0.00 0.00 10 1027.3